Weather Roundup
Issued by NWS Springfield, MO

Home | Current Version | Previous Version | Text Only | Print | Product List | Glossary On
Versions: 1 2 3 4 5 6 7 8 9 10 11 12 13 14 15 16 17 18 19 20 21 22 23 24 25 26 27 28 29 30 31 32 33 34 35 36 37 38 39 40 41 42 43 44 45 46 47 48 49 50
000
NZUS99 KSGF 242007
HRRSGF

HOURLY WEATHER
NATIONAL WEATHER SERVICE SPRINGFIELD MO
300 PM CDT WED AUG 24 2016

......SGF CWA......

CITY           SKY/WX    TMP DP  RH WIND       PRES   REMARKS
SPRINGFIELD    SUNNY     91  71  51 SW14      30.06F HX  97
JOPLIN         MOSUNNY   92  72  51 S13       30.02F HX  99
WEST PLAINS    MOSUNNY   89  73  59 S9        30.11F HX  97
ROLLA          MOSUNNY   88  75  65 S8        30.05F HX  97
OSAGE BEACH    SUNNY     90  72  55 W9        30.04F HX  97
BRANSON        PTSUNNY   90  72  55 S9        30.10F HX  96

......SURROUNDING SGF CWA......

CITY           SKY/WX    TMP DP  RH WIND       PRES   REMARKS
CHANUTE        MOSUNNY   92  72  51 S8        29.98F HX  99
PARSONS        SUNNY     95  71  45 S8G16     29.99F HX 102
COFFEYVILLE    SUNNY     96  70  42 S13G18    29.97F HX 102
EMPORIA        MOSUNNY   87  68  52 S8        29.98F HX  90
GROVE OK       MOSUNNY   95  70  43 S15       30.03F HX 101
ROGERS AR      PTSUNNY   93  70  46 S13       30.09F HX  99
SILOAM SPRINGS MOSUNNY   95  64  36 S12G21    30.08F HX  97
HARRISON AR    MOSUNNY   89  73  59 S12       30.11F HX  97
NEAR YELLVILLE MOSUNNY   91  72  52 SW8       30.06F HX  98

......KANSAS AND MISSOURI......

CITY           SKY/WX    TMP DP  RH WIND       PRES   REMARKS
KANSAS CTY INT CLOUDY    80  72  76 S7        29.99F
DOWNTOWN KC    CLOUDY    83  73  72 S7        29.98F
COLUMBIA       PTSUNNY   88  74  63 SW10      30.02F HX  96
SEDALIA        PTSUNNY   89  73  59 SW10      30.03F HX  97
ST JOSEPH      MOSUNNY   79  74  84 S7        29.98S
ST LOUIS       PTSUNNY   94  72  48 W9G21     30.02F HX 102
SPIRIT OF STL  MOSUNNY   92  74  55 W9        30.00F HX 101
KIRKSVILLE     CLOUDY    83  73  72 VRB6      30.01F
WICHITA        PTSUNNY   91  66  43 S12       29.97F HX  93
TOPEKA         MOSUNNY   83  70  64 S6        29.99F
OLATHE         MOSUNNY   86  70  58 VRB3      30.00F HX  90

......TENNESSEE......

CITY           SKY/WX    TMP DP  RH WIND       PRES   REMARKS
MEMPHIS        MOSUNNY   94  73  50 SW12G17   30.13F HX 103
NASHVILLE      CLOUDY    91  71  51 S7        30.16F HX  97

......ARKANSAS.......

CITY           SKY/WX    TMP DP  RH WIND       PRES   REMARKS
FAYETTEVILLE   SUNNY     88  73  61 S15       30.09F HX  95
FT SMITH       SUNNY     94  67  41 SW9       30.05F HX  97
LITTLE ROCK    MOSUNNY   95  75  52 S13       30.10F HX 107

......OKLAHOMA.......

CITY           SKY/WX    TMP DP  RH WIND       PRES   REMARKS
TULSA          MOSUNNY   97  67  37 S18G29    29.96F HX 101
PONCA CITY     MOSUNNY   94  65  38 SW9G18    29.95F HX  96
MCALESTER      SUNNY     95  68  41 S8        30.04F HX  99
OKLAHOMA CITY  MOSUNNY   94  66  39 S18G25    30.00F HX  97

......IOWA............

CITY           SKY/WX    TMP DP  RH WIND       PRES   REMARKS
DES MOINES     CLOUDY    84  71  65 W8        29.96F
QUAD CITIES    SUNNY     86  71  60 W9        29.95S HX  91

......ILLINOIS........

CITY           SKY/WX    TMP DP  RH WIND       PRES   REMARKS
QUINCY         CLOUDY    87  75  67 SW9       30.00S HX  96
CHICAGO        CLOUDY    80  72  76 W8        29.91F




USA.gov is the U.S. government's official web portal to all federal, state and local government web resources and services.